Location: Newark
(41.6500°N, 71.4833°W)
Time: 03:28:29
(UTC+00:00)

A-11 Canister half - Pass Details

Date: 28 January 2020
Orbit: 1517 x 1683 km, 47.2° (Epoch: 18 February)

Event Time Altitude Azimuth Distance (km) Brightness Sun altitude
Rises 03:27:48 0° 231° (SW) 4,772 - -59.7°
Reaches altitude 10° 03:30:55 10° 230° (SW) 3,768 - -60.1°
Maximum altitude 03:40:23 74° 148° (SSE) 1,593 - -61.3°
Drops below altitude 10° 03:49:37 10° 65° (ENE) 3,686 - -62.4°
Sets 03:52:38 0° 64° (ENE) 4,665 - -62.8°
